Elefsis, Greece

3:42 PM EET on December 16, 2017 (GMT +0200)
Elefsis Air Base

Weather History for LGEL - February, 2014

Change the Weather History Date:

Thursday, February 27, 2014

  Actual Average Record
Temperature  
Mean Temperature 52 °F -  
Max Temperature 62 °F 59 °F 68 °F (2004)
Min Temperature 41 °F 43 °F 35 °F (2003)
Degree Days  
Heating Degree Days 14    
Growing Degree Days 2 (Base 50)    
Moisture  
Dew Point 44 °F    
Average Humidity 76    
Maximum Humidity 93    
Minimum Humidity 55    
Precipitation  
Precipitation 0.00 in - - ()
Sea Level Pressure  
Sea Level Pressure 30.19 in    
Wind  
Wind Speed 2 mph ()    
Max Wind Speed 9 mph    
Max Gust Speed -    
Visibility 6.2 miles    
Events      
Averages and records for this station are not official NWS values.
T = Trace of Precipitation, MM = Missing Value Source: Averaged Metar Reports

Daily Weather History Graph

Daily Weather History Graph

Search for Another Location

Airport or City:

Trip Planner

Search our weather history database for the weather conditions in past years. The results will help you decide how hot, cold, wet, or windy it might be!

Date:

Astronomy

Feb. 27, 2014 Rise Set
Actual Time 7:00 AM EET 6:16 PM EET
Civil Twilight 6:34 AM EET 6:43 PM EET
Nautical Twilight 6:03 AM EET 7:13 PM EET
Astronomical Twilight 5:33 AM EET 7:44 PM EET
Moon 5:17 AM EET (2/27) 4:21 PM EET (2/27)
Length of Visible Light 12h 09m
Length of Day
11h 16m
Waning Crescent, 5% of the Moon is Illuminated
Feb 27
Waning Crescent
Mar 1
New
Mar 8
First Quarter
Mar 16
Full
Mar 24
Last Quarter

Hourly Weather History & Observations

Time (EET) Temp. Windchill Dew Point Humidity Pressure Visibility Wind Dir Wind Speed Gust Speed Precip Events Conditions
12:50 AM 46.4 °F - 41.0 °F 81% 30.21 in 6.2 mi Calm Calm - N/A   Partly Cloudy
1:50 AM 42.8 °F - 41.0 °F 93% 30.21 in 6.2 mi Calm Calm - N/A   Partly Cloudy
2:50 AM 42.8 °F - 41.0 °F 93% 30.21 in 6.2 mi Calm Calm - N/A   Partly Cloudy
3:50 AM 41.0 °F - 39.2 °F 93% 30.21 in 6.2 mi Calm Calm - N/A   Partly Cloudy
4:50 AM 41.0 °F 38.0 °F 39.2 °F 93% 30.21 in 6.2 mi North 4.6 mph - N/A   Partly Cloudy
5:20 AM 41.0 °F 38.0 °F 39.2 °F 93% 30.21 in 6.2 mi North 4.6 mph - N/A   Partly Cloudy
5:50 AM 42.8 °F - 39.2 °F 87% 30.21 in 6.2 mi Calm Calm - N/A   Partly Cloudy
6:20 AM 41.0 °F - 39.2 °F 93% 30.21 in 6.2 mi Calm Calm - N/A   Partly Cloudy
6:50 AM 41.0 °F - 39.2 °F 93% 30.21 in - Calm Calm - N/A   Clear
7:20 AM 41.0 °F - 39.2 °F 93% 30.21 in - Calm Calm - N/A   Clear
7:50 AM 42.8 °F 40.1 °F 41.0 °F 93% 30.21 in - North 4.6 mph - N/A   Clear
8:20 AM 48.2 °F - 44.6 °F 87% 30.24 in - Calm Calm - N/A   Clear
8:50 AM 50.0 °F - 44.6 °F 82% 30.24 in - Calm Calm - N/A   Clear
9:20 AM 55.4 °F - 44.6 °F 67% 30.24 in - Calm Calm - N/A   Clear
9:50 AM 55.4 °F - 44.6 °F 67% 30.24 in - Calm Calm - N/A   Clear
10:20 AM 57.2 °F - 44.6 °F 63% 30.24 in - Calm Calm - N/A   Clear
10:50 AM 59.0 °F - 46.4 °F 63% 30.24 in 6.2 mi Calm Calm - N/A   Partly Cloudy
11:20 AM 59.0 °F - 44.6 °F 59% 30.24 in 6.2 mi Calm Calm - N/A   Partly Cloudy
11:50 AM 60.8 °F - 46.4 °F 59% 30.21 in 6.2 mi Variable 3.5 mph - N/A   Partly Cloudy
12:20 PM 60.8 °F - 44.6 °F 55% 30.21 in 6.2 mi SSW 5.8 mph - N/A   Partly Cloudy
12:50 PM 60.8 °F - 46.4 °F 59% 30.21 in 6.2 mi SSW 8.1 mph - N/A   Scattered Clouds
1:20 PM 60.8 °F - 46.4 °F 59% 30.18 in 6.2 mi South 9.2 mph - N/A   Scattered Clouds
1:50 PM 62.6 °F - 46.4 °F 55% 30.18 in 6.2 mi South 8.1 mph - N/A   Scattered Clouds
2:20 PM 62.6 °F - 46.4 °F 55% 30.18 in 6.2 mi South 8.1 mph - N/A   Scattered Clouds
2:50 PM 62.6 °F - 46.4 °F 55% 30.15 in 6.2 mi SSE 8.1 mph - N/A   Scattered Clouds
3:20 PM 62.6 °F - 46.4 °F 55% 30.15 in 6.2 mi South 8.1 mph - N/A   Scattered Clouds
3:50 PM 60.8 °F - 50.0 °F 68% 30.15 in 6.2 mi South 9.2 mph - N/A   Mostly Cloudy
4:20 PM 59.0 °F - 50.0 °F 72% 30.15 in 6.2 mi South 8.1 mph - N/A   Mostly Cloudy
4:50 PM 59.0 °F - 48.2 °F 67% 30.15 in 6.2 mi SSE 8.1 mph - N/A   Partly Cloudy
5:20 PM 57.2 °F - 48.2 °F 72% 30.15 in 6.2 mi South 9.2 mph - N/A   Partly Cloudy
5:50 PM 55.4 °F - 48.2 °F 77% 30.15 in 6.2 mi South 8.1 mph - N/A   Partly Cloudy
6:20 PM 55.4 °F - 48.2 °F 77% 30.15 in 6.2 mi South 5.8 mph - N/A   Partly Cloudy
6:50 PM 55.4 °F - 46.4 °F 72% 30.18 in 6.2 mi Calm Calm - N/A   Partly Cloudy
7:20 PM 53.6 °F - 46.4 °F 77% 30.18 in 6.2 mi Calm Calm - N/A   Partly Cloudy
7:50 PM 55.4 °F - 46.4 °F 72% 30.18 in 6.2 mi Calm Calm - N/A   Partly Cloudy
8:20 PM 51.8 °F - 44.6 °F 76% 30.18 in 6.2 mi Calm Calm - N/A   Partly Cloudy
8:50 PM 48.2 °F - 44.6 °F 87% 30.18 in 6.2 mi Calm Calm - N/A   Partly Cloudy
9:20 PM 48.2 °F - 44.6 °F 87% 30.18 in 6.2 mi Calm Calm - N/A   Partly Cloudy
9:50 PM 48.2 °F - 44.6 °F 87% 30.18 in 6.2 mi Calm Calm - N/A   Partly Cloudy
10:20 PM 48.2 °F - 44.6 °F 87% 30.18 in 6.2 mi Calm Calm - N/A   Partly Cloudy
10:50 PM 46.4 °F 44.3 °F 44.6 °F 93% 30.15 in 6.2 mi North 4.6 mph - N/A   Partly Cloudy
11:50 PM 48.2 °F - 44.6 °F 87% 30.15 in 6.2 mi Calm Calm - N/A   Partly Cloudy